軌道要素
Epoch 2020 Dec. 17.0 TT = JDT 2459200.5
T 2020 Dec. 30.17221 TT Rudenko
q 1.9044914 (2000.0) P Q
n 0.13036150 Peri. 152.31730 +0.34421141 -0.89397964
a 3.8521497 Node 276.34468 +0.79923584 +0.43935259
e 0.5056030 Incl. 16.77900 +0.49268711 -0.08814589
P 7.56
From 750 observations 2005 Sept. 15-2021 Jan. 24, mean residual 0".9.
|